Regional Weather Roundup
Issued by NWS Goodland, KS

Home | Current Version | Previous Version | Graphics & Text | Print | Product List | Glossary Off
Versions: 1 2 3 4 5 6 7 8 9 10 11 12 13 14 15 16 17 18 19 20 21 22 23 24 25 26 27 28 29 30 31 32 33 34 35 36 37 38 39 40 41 42 43 44 45 46 47 48 49 50

000
ASUS43 KGLD 110308
RWRGLD

GOODLAND FORECAST AREA HOURLY WEATHER ROUNDUP
NATIONAL WEATHER SERVICE GOODLAND KS
900 PM MDT THU JUL 10 2014

...OFFICIAL OBSERVATIONS...

CITY           SKY/WX    TMP DP  RH WIND       PRES   REMARKS
GOODLAND KS    CLEAR     79  68  69 SE17      29.93R
HILL CITY KS   CLEAR     77  69  76 SE13      29.93R
IMPERIAL NEB   PTCLDY    76  65  68 SE10      29.91R
MCCOOK NEB     CLEAR     78  69  73 SE12      29.91R
AKRON CO       PTCLDY    80  63  55 SE14G23   29.95R
BURLINGTON CO  CLEAR     78  64  61 SE14      29.94R
LIMON CO       CLEAR     73  39  29 SE5       30.01R
$$

...UNOFFICIAL OBSERVATIONS...

CITY           SKY/WX    TMP DP  RH WIND       PRES   REMARKS
COLBY KS       CLEAR     79  72  78 SE18G25   29.93R
GOVE KS          N/A     79  32  18 CALM        N/A
LENORA KS        N/A     76  32  20 MISG        N/A
NORTON KS      CLEAR     75  64  69 SE13G18   29.92R
OBERLIN KS     FAIR      77  66  69 SE10      29.92R
SHARON SPRINGS   N/A     82  56  41 S13G20      N/A
TRIBUNE KS     CLEAR     84 N/A N/A SE17      29.94R
WAKEENEY KS      N/A     76  67  76 MISG        N/A
YUMA CO          N/A     78  64  62 SE10        N/A
$$



USA.gov is the U.S. government's official web portal to all federal, state and local government web resources and services.